GW2646 Weather Reports


time (UTC)temp
F
wind
direction
speed
knots
gust
knots
rain 1hr
in
rain 24hr
in
rain mn
in
humidity
%
barometer
mb
20260510151550 52 0 0.0 2.6 0.00 0.00 0.00 91 1017.2
20260510151045 52 0 0.0 0.9 0.00 0.00 0.00 92 1017.3
20260510150547 52 0 0.0 0.9 0.00 0.00 0.00 92 1017.4
20260510150052 51 0 0.0 0.9 0.00 0.00 0.00 93 1017.5
20260510145546 51 0 0.0 0.9 0.00 0.00 0.00 93 1017.6
20260510145043 51 0 0.0 0.0 0.00 0.00 0.00 94 1017.4
20260510144604 51 0 0.0 0.0 0.00 0.00 0.00 94 1017.5
20260510144043 50 0 0.0 0.9 0.00 0.00 0.00 94 1017.5
20260510143545 50 0 0.0 1.7 0.00 0.00 0.00 94 1017.7
20260510143053 50 0 0.0 1.7 0.00 0.00 0.00 95 1017.6
20260510142548 50 0 0.0 0.0 0.00 0.00 0.00 95 1017.3
20260510142045 50 0 0.0 0.9 0.00 0.00 0.00 95 1017.3
20260510141553 49 0 0.0 0.9 0.00 0.00 0.00 95 1017.2
20260510141046 49 0 0.0 0.9 0.00 0.00 0.00 96 1017.4
20260510140552 49 40 0.0 0.9 0.00 0.00 0.00 96 1017.5
20260510140052 48 0 0.0 0.0 0.00 0.00 0.00 95 1017.2
20260510135547 48 0 0.0 0.0 0.00 0.00 0.00 95 1017.0
20260510135047 48 0 0.0 0.0 0.00 0.00 0.00 95 1017.2
20260510134600 47 0 0.0 0.0 0.00 0.00 0.00 95 1017.4
20260510134047 47 0 0.0 0.0 0.00 0.00 0.00 95 1017.3
20260510133544 47 0 0.0 0.0 0.00 0.00 0.00 95 1017.2
20260510133056 47 0 0.0 1.7 0.00 0.00 0.00 95 1017.3
20260510132546 47 0 0.0 1.7 0.00 0.00 0.00 95 1017.3
20260510132049 47 0 0.0 0.0 0.00 0.00 0.00 95 1017.3
20260510131555 47 0 0.0 0.0 0.00 0.00 0.00 99 1017.2
20260510131046 47 0 0.0 0.0 0.00 0.00 0.00 95 1017.1
20260510130545 47 0 0.0 0.0 0.00 0.00 0.00 95 1017.0
20260510130057 46 0 0.0 0.0 0.00 0.00 0.00 94 1017.0
20260510125546 46 0 0.0 0.0 0.00 0.00 0.00 95 1017.0
20260510125047 46 0 0.0 0.0 0.00 0.00 0.00 94 1017.0
20260510124612 46 0 0.0 0.0 0.00 0.00 0.00 94 1016.9
20260510124047 46 0 0.0 0.0 0.00 0.00 0.00 94 1016.9
20260510123544 46 0 0.0 0.0 0.00 0.00 0.00 94 1017.0
20260510123055 46 0 0.0 0.0 0.00 0.00 0.00 94 1017.1
20260510122546 46 0 0.0 0.0 0.00 0.00 0.00 94 1017.1
20260510122047 46 0 0.0 0.0 0.00 0.00 0.00 94 1017.2
20260510121554 46 0 0.0 0.0 0.00 0.00 0.00 94 1017.1
20260510121047 47 0 0.0 0.0 0.00 0.00 0.00 94 1017.1
20260510120546 47 0 0.0 0.0 0.00 0.00 0.00 94 1017.1
20260510120105 47 0 0.0 0.0 0.00 0.00 0.00 93 1017.1
20260510115546 47 0 0.0 0.0 0.00 0.00 0.00 93 1017.2
20260510115046 47 0 0.0 0.0 0.00 0.00 0.00 93 1017.0
20260510114556 47 0 0.0 0.0 0.00 0.00 0.00 93 1017.1
20260510114046 47 0 0.0 0.0 0.00 0.00 0.00 93 1016.9
20260510113545 47 0 0.0 0.0 0.00 0.00 0.00 93 1017.0
20260510113055 47 0 0.0 0.0 0.00 0.00 0.00 93 1016.8
20260510112544 47 0 0.0 0.0 0.00 0.00 0.00 93 1016.9
20260510112046 48 0 0.0 0.0 0.00 0.00 0.00 93 1016.8
20260510111558 48 0 0.0 0.0 0.00 0.00 0.00 93 1016.8
20260510111045 48 0 0.0 0.0 0.00 0.00 0.00 93 1016.8
20260510110547 48 0 0.0 0.0 0.00 0.00 0.00 92 1016.7
20260510110056 48 0 0.0 0.0 0.00 0.00 0.00 92 1016.6
20260510105547 48 0 0.0 0.9 0.00 0.00 0.00 92 1016.7
20260510105047 48 0 0.0 0.9 0.00 0.00 0.00 92 1016.8
20260510104603 49 0 0.0 0.9 0.00 0.00 0.00 92 1016.9
20260510104047 49 0 0.0 0.0 0.00 0.00 0.00 92 1016.9
20260510103546 49 0 0.0 0.0 0.00 0.00 0.00 92 1016.8
20260510103052 49 0 0.0 0.0 0.00 0.00 0.00 92 1016.8
20260510102548 49 0 0.0 0.0 0.00 0.00 0.00 91 1016.9
20260510102048 49 0 0.0 0.9 0.00 0.00 0.00 91 1016.8
20260510101551 50 0 0.0 1.7 0.00 0.00 0.00 91 1016.9
20260510101045 50 0 0.0 1.7 0.00 0.00 0.00 91 1016.9
20260510100546 50 0 0.0 2.6 0.00 0.00 0.00 91 1016.8
20260510100052 50 0 0.0 2.6 0.00 0.00 0.00 91 1016.8
20260510095546 50 0 0.0 2.6 0.00 0.00 0.00 91 1016.7
20260510095046 50 35 0.0 2.6 0.00 0.00 0.00 91 1016.8
20260510094601 50 34 0.0 1.7 0.00 0.00 0.00 90 1016.7
20260510094049 50 0 0.0 2.6 0.00 0.00 0.00 90 1016.7
20260510093544 50 0 0.0 3.5 0.00 0.00 0.00 90 1016.6
20260510093112 51 0 0.0 3.5 0.00 0.00 0.00 90 1016.6
20260510092547 51 34 0.0 3.5 0.00 0.00 0.00 90 1016.5
20260510092044 51 49 0.9 3.5 0.00 0.00 0.00 90 1016.5
20260510091553 51 0 0.0 2.6 0.00 0.00 0.00 90 1016.6
20260510091048 51 0 0.0 0.9 0.00 0.00 0.00 89 1016.5
20260510090548 51 0 0.0 2.6 0.00 0.00 0.00 89 1016.6
20260510090049 51 0 0.0 2.6 0.00 0.00 0.00 89 1016.5
20260510085548 51 360 0.0 3.5 0.00 0.00 0.00 89 1016.5
20260510085046 51 9 0.0 3.5 0.00 0.00 0.00 89 1016.4
20260510084600 51 0 0.0 3.5 0.00 0.00 0.00 89 1016.4
20260510084049 51 0 0.0 0.9 0.00 0.00 0.00 89 1016.5
20260510083545 51 0 0.0 0.9 0.00 0.00 0.00 88 1016.4
20260510083057 51 326 0.0 0.9 0.00 0.00 0.00 88 1016.5
20260510082547 51 0 0.0 0.9 0.00 0.00 0.00 88 1016.3
20260510082045 51 0 0.0 0.9 0.00 0.00 0.00 89 1016.3
20260510081556 51 0 0.0 0.9 0.00 0.00 0.00 88 1016.3
20260510081049 52 0 0.0 0.9 0.00 0.00 0.00 88 1016.4
20260510080546 52 0 0.0 1.7 0.00 0.00 0.00 88 1016.5
20260510080052 52 0 0.0 1.7 0.00 0.00 0.00 89 1016.4
20260510075546 52 0 0.0 1.7 0.00 0.00 0.00 89 1016.3
20260510075048 52 325 0.0 1.7 0.00 0.00 0.00 89 1016.2
20260510074550 52 0 0.0 1.7 0.00 0.00 0.00 90 1016.2
20260510074046 52 0 0.0 1.7 0.00 0.00 0.00 90 1016.3
20260510073547 52 0 0.0 0.9 0.00 0.00 0.00 90 1016.3
20260510073055 52 0 0.0 0.9 0.00 0.00 0.00 90 1016.2
20260510072547 52 0 0.0 0.9 0.00 0.00 0.00 90 1016.2
20260510072046 52 0 0.0 0.9 0.00 0.00 0.00 90 1016.1
20260510071554 51 0 0.0 0.0 0.00 0.00 0.00 90 1016.0
20260510071046 51 0 0.0 0.0 0.00 0.00 0.00 90 1016.2
20260510070547 51 0 0.0 0.0 0.00 0.00 0.00 90 1016.0
20260510070053 52 0 0.0 0.0 0.00 0.00 0.00 89 1015.9
20260510065546 52 0 0.0 0.0 0.00 0.00 0.00 89 1016.0
20260510065046 52 0 0.0 0.0 0.00 0.00 0.00 89 1015.9
20260510064549 52 0 0.0 0.0 0.00 0.00 0.00 89 1015.9
20260510064045 52 0 0.0 0.0 0.00 0.00 0.00 89 1015.9
20260510063548 52 0 0.0 0.0 0.00 0.00 0.00 88 1015.9
20260510063051 53 0 0.0 0.0 0.00 0.00 0.00 88 1016.0
20260510062547 53 0 0.0 0.0 0.00 0.00 0.00 88 1016.1
20260510062047 53 0 0.0 0.0 0.00 0.00 0.00 88 1016.2
20260510061549 53 0 0.0 0.0 0.00 0.00 0.00 88 1016.1
20260510061047 53 0 0.0 0.0 0.00 0.00 0.00 87 1016.0
20260510060547 53 0 0.0 0.0 0.00 0.00 0.00 87 1016.0
20260510060053 54 0 0.0 0.0 0.00 0.00 0.00 87 1016.0
20260510055546 54 0 0.0 0.0 0.00 0.00 0.00 87 1016.0
20260510055046 54 0 0.0 0.0 0.00 0.00 0.00 88 1015.9
20260510054551 54 0 0.0 0.0 0.00 0.00 0.00 86 1016.0
20260510054046 54 0 0.0 0.0 0.00 0.00 0.00 85 1015.9
20260510053545 54 0 0.0 0.0 0.00 0.00 0.00 85 1016.0
20260510053100 55 0 0.0 0.0 0.00 0.00 0.00 85 1016.0
20260510052542 55 0 0.0 0.9 0.00 0.00 0.00 84 1016.0
20260510052047 55 0 0.0 0.9 0.00 0.00 0.00 84 1016.0
20260510051550 55 0 0.0 0.0 0.00 0.00 0.00 83 1016.2
20260510051046 55 0 0.0 0.0 0.00 0.00 0.00 83 1016.2
20260510050550 56 0 0.0 0.0 0.00 0.00 0.00 83 1016.2
20260510050052 56 0 0.0 0.0 0.00 0.00 0.00 82 1016.1
20260510045547 56 0 0.0 0.0 0.00 0.00 0.00 82 1016.0
20260510045047 56 0 0.0 0.0 0.00 0.00 0.00 82 1016.1
20260510044551 56 0 0.0 0.0 0.00 0.00 0.00 81 1016.1
20260510044046 57 0 0.0 0.0 0.00 0.00 0.00 81 1016.1
20260510043548 57 0 0.0 0.0 0.00 0.00 0.00 80 1016.0
20260510043100 57 0 0.0 0.0 0.00 0.00 0.00 79 1016.0
20260510042547 58 0 0.0 0.9 0.00 0.00 0.00 79 1015.8
20260510042050 58 0 0.0 0.9 0.00 0.00 0.00 78 1015.8
20260510041550 58 0 0.0 0.0 0.00 0.00 0.00 78 1015.9
20260510041046 59 0 0.0 0.0 0.00 0.00 0.00 77 1015.8
20260510040546 59 0 0.0 0.0 0.00 0.00 0.00 76 1015.9
20260510040052 60 0 0.0 0.0 0.00 0.00 0.00 75 1015.9
20260510035546 61 0 0.0 0.9 0.00 0.00 0.00 72 1015.8
20260510035047 61 0 0.0 0.9 0.00 0.00 0.00 71 1015.8
20260510034554 62 0 0.0 0.9 0.00 0.00 0.00 71 1015.8
20260510034046 62 0 0.0 0.0 0.00 0.00 0.00 71 1015.8
20260510033549 62 0 0.0 0.0 0.00 0.00 0.00 71 1015.8
20260510033101 63 0 0.0 0.0 0.00 0.00 0.00 71 1015.7
20260510032547 63 0 0.0 0.0 0.00 0.00 0.00 71 1015.7
20260510032047 63 0 0.0 0.0 0.00 0.00 0.00 71 1015.7
20260510031553 64 0 0.0 0.0 0.00 0.00 0.00 72 1015.6
20260510031046 64 0 0.0 0.0 0.00 0.00 0.00 71 1015.6
20260510030546 64 0 0.0 0.0 0.00 0.00 0.00 70 1015.7
20260510030056 65 0 0.0 0.9 0.00 0.00 0.00 70 1015.6
20260510025546 65 0 0.0 0.9 0.00 0.00 0.00 69 1015.7
20260510025046 64 325 0.0 1.7 0.00 0.00 0.00 65 1015.8
20260510024557 64 0 0.0 1.7 0.00 0.00 0.00 67 1015.9
20260510024045 64 0 0.0 1.7 0.00 0.00 0.00 67 1016.0
20260510023545 65 0 0.0 0.9 0.00 0.00 0.00 67 1015.9
20260510023051 65 0 0.0 0.9 0.00 0.00 0.00 66 1015.8
20260510022546 65 0 0.0 1.7 0.00 0.00 0.00 67 1015.9
20260510022046 64 0 0.0 1.7 0.00 0.00 0.00 66 1016.1
20260510021554 64 0 0.0 1.7 0.00 0.00 0.00 66 1016.2
20260510021046 64 322 0.0 2.6 0.00 0.00 0.00 66 1016.2
20260510020547 64 0 0.0 3.5 0.00 0.00 0.00 66 1016.4
20260510020054 64 350 0.9 5.2 0.00 0.00 0.00 66 1016.4
20260510015546 64 330 0.9 5.2 0.00 0.00 0.00 65 1016.4
20260510015046 65 338 0.9 5.2 0.00 0.00 0.00 65 1016.5
20260510014549 65 0 0.0 3.5 0.00 0.00 0.00 65 1016.6
20260510014048 65 0 0.0 3.5 0.00 0.00 0.00 65 1016.6
20260510013547 65 319 0.9 3.5 0.00 0.00 0.00 64 1016.7
20260510013057 65 0 0.0 3.5 0.00 0.00 0.00 64 1016.8
20260510012548 65 291 0.0 3.5 0.00 0.00 0.00 64 1016.8
20260510012046 65 268 0.9 3.5 0.00 0.00 0.00 64 1016.8
20260510011558 66 319 0.0 3.5 0.00 0.00 0.00 64 1016.9
20260510011046 66 0 0.0 4.3 0.00 0.00 0.00 64 1016.9
20260510010546 66 296 0.0 5.2 0.00 0.00 0.00 64 1017.0
20260510010051 66 257 1.7 5.2 0.00 0.00 0.00 63 1017.0
20260510005546 66 0 0.0 4.3 0.00 0.00 0.00 62 1017.1
20260510005047 66 273 0.9 7.0 0.00 0.00 0.00 62 1017.1
20260510004553 67 0 0.9 7.0 0.00 0.00 0.00 61 1017.0
20260510004047 67 225 0.0 6.1 0.00 0.00 0.00 62 1017.1
20260510003547 67 310 1.7 6.1 0.00 0.00 0.00 62 1017.2
20260510003054 67 317 0.0 4.3 0.00 0.00 0.00 61 1017.2
20260510002546 67 319 0.9 4.3 0.00 0.00 0.00 62 1017.3
20260510002048 67 0 0.9 4.3 0.00 0.00 0.00 63 1017.3
20260510001553 67 0 0.9 6.1 0.00 0.00 0.00 62 1017.3
20260510001045 67 309 1.7 6.1 0.00 0.00 0.00 61 1017.3
20260510000547 68 0 1.7 6.1 0.00 0.00 0.00 62 1017.4
20260510000057 67 0 1.7 6.1 0.00 0.00 0.00 63 1017.5
20260509235547 67 259 1.7 6.1 0.00 0.00 0.00 63 1017.6
20260509235046 67 336 0.9 6.1 0.00 0.00 0.00 63 1017.7
20260509234550 67 22 1.7 6.1 0.00 0.00 0.00 63 1017.8
20260509234046 67 306 1.7 6.1 0.00 0.00 0.00 62 1017.7
20260509233545 66 0 1.7 7.0 0.00 0.00 0.00 64 1017.7
20260509233058 66 327 0.9 7.0 0.00 0.00 0.00 65 1017.7
20260509232548 66 327 1.7 7.0 0.00 0.00 0.00 64 1017.8
20260509232047 66 0 1.7 5.2 0.00 0.00 0.00 65 1018.0
20260509231557 66 242 0.9 7.0 0.00 0.00 0.00 64 1018.0
20260509231046 66 322 1.7 7.0 0.00 0.00 0.00 65 1018.1
20260509230545 66 298 2.6 7.8 0.00 0.00 0.00 64 1018.1
20260509230056 66 74 2.6 7.8 0.00 0.00 0.00 65 1018.2
20260509225547 66 324 1.7 9.6 0.00 0.00 0.00 63 1018.5
20260509225046 67 302 0.9 9.6 0.00 0.00 0.00 60 1018.4
20260509224550 66 307 2.6 8.7 0.00 0.00 0.00 64 1018.6
20260509224048 67 217 1.7 7.0 0.00 0.00 0.00 64 1018.6
20260509223549 66 325 2.6 7.0 0.00 0.00 0.00 64 1018.6
20260509223052 66 0 3.5 9.6 0.00 0.00 0.00 63 1018.6
20260509222546 66 329 3.5 9.6 0.00 0.00 0.00 64 1018.6
20260509222046 66 293 1.7 7.8 0.00 0.00 0.00 64 1018.7
20260509221555 67 321 0.9 7.0 0.00 0.00 0.00 63 1018.7
20260509221145 67 288 0.9 7.8 0.00 0.00 0.00 62 1018.7
20260509220546 67 329 0.9 7.8 0.00 0.00 0.00 63 1018.7
20260509220051 66 315 3.5 8.7 0.00 0.00 0.00 63 1018.8
20260509215547 66 330 1.7 9.6 0.00 0.00 0.00 63 1018.9
20260509215047 66 42 4.3 9.6 0.00 0.00 0.00 64 1018.8
20260509214610 66 251 3.5 10.4 0.00 0.00 0.00 64 1018.9
20260509214046 67 316 2.6 12.2 0.00 0.00 0.00 63 1019.0
20260509213545 66 245 2.6 12.2 0.00 0.00 0.00 63 1019.0
20260509213053 66 336 2.6 8.7 0.00 0.00 0.00 63 1019.1
20260509212546 66 0 2.6 7.8 0.00 0.00 0.00 63 1019.2
20260509212047 67 300 2.6 9.6 0.00 0.00 0.00 63 1019.2
20260509211552 67 294 3.5 9.6 0.00 0.00 0.00 62 1019.3
20260509211047 67 233 2.6 7.8 0.00 0.00 0.00 62 1019.3
20260509210544 67 332 1.7 7.0 0.00 0.00 0.00 60 1019.3
20260509210100 67 15 0.9 6.1 0.00 0.00 0.00 61 1019.2
20260509205546 67 0 1.7 7.8 0.00 0.00 0.00 62 1019.2
20260509205046 66 340 1.7 7.8 0.00 0.00 0.00 62 1019.3
20260509204554 67 303 1.7 6.1 0.00 0.00 0.00 61 1019.3
20260509204044 66 0 2.6 6.1 0.00 0.00 0.00 61 1019.3
20260509203544 66 307 1.7 3.5 0.00 0.00 0.00 62 1019.3
20260509203059 66 338 0.9 3.5 0.00 0.00 0.00 62 1019.2
20260509202548 67 5 0.9 7.0 0.00 0.00 0.00 60 1019.3
20260509202046 65 317 1.7 7.0 0.00 0.00 0.00 63 1019.4
20260509201551 66 302 0.0 5.2 0.00 0.00 0.00 63 1019.4
20260509201047 65 0 2.6 4.3 0.00 0.00 0.00 64 1019.5
20260509200548 66 338 0.9 4.3 0.00 0.00 0.00 62 1019.6
20260509200056 66 0 0.9 6.1 0.00 0.00 0.00 61 1019.7
20260509195545 65 319 0.9 7.0 0.00 0.00 0.00 64 1019.7
20260509195048 64 282 2.6 7.0 0.00 0.00 0.00 64 1019.8
20260509194554 65 26 0.9 7.0 0.00 0.00 0.00 65 1019.8
20260509194050 64 298 1.7 6.1 0.00 0.00 0.00 65 1019.8
20260509193547 64 14 0.9 6.1 0.00 0.00 0.00 65 1019.9
20260509193058 65 292 2.6 6.1 0.00 0.00 0.00 63 1020.0
20260509192548 65 329 1.7 6.1 0.00 0.00 0.00 62 1020.0
20260509192048 64 322 1.7 7.0 0.00 0.00 0.00 66 1020.2
20260509191600 64 284 1.7 7.0 0.00 0.00 0.00 65 1020.2
20260509191048 64 327 0.9 6.1 0.00 0.00 0.00 68 1020.1
20260509190544 63 269 1.7 6.1 0.00 0.00 0.00 66 1020.1
20260509190056 64 295 0.9 6.1 0.00 0.00 0.00 65 1020.2
20260509185546 64 225 0.9 6.1 0.00 0.00 0.00 67 1020.2
20260509185046 63 329 1.7 6.1 0.00 0.00 0.00 67 1020.4
20260509184559 63 304 0.9 7.0 0.00 0.00 0.00 67 1020.5
20260509184045 63 311 1.7 7.0 0.00 0.00 0.00 67 1020.5
20260509183543 63 297 0.9 4.3 0.00 0.00 0.00 67 1020.5
20260509183059 63 244 1.7 4.3 0.00 0.00 0.00 66 1020.5
20260509182549 63 289 0.9 5.2 0.00 0.00 0.00 66 1020.5
20260509182044 63 11 1.7 5.2 0.00 0.00 0.00 66 1020.5
20260509181554 63 17 1.7 5.2 0.00 0.00 0.00 67 1020.5
20260509181047 63 309 0.0 7.8 0.00 0.00 0.00 66 1020.6
20260509180547 63 325 2.6 7.8 0.00 0.00 0.00 66 1020.5
20260509180050 63 193 2.6 6.1 0.00 0.00 0.00 65 1020.5
20260509175549 62 203 0.0 5.2 0.00 0.00 0.00 67 1020.5
20260509175047 62 249 1.7 5.2 0.00 0.00 0.00 67 1020.6
20260509174603 62 319 0.0 4.3 0.00 0.00 0.00 67 1020.6
20260509174045 61 352 2.6 4.3 0.00 0.00 0.00 67 1020.6
20260509173545 61 360 0.0 4.3 0.00 0.00 0.00 67 1020.7
20260509173052 61 35 1.7 7.0 0.00 0.00 0.00 66 1020.7
20260509172547 61 145 0.0 7.0 0.00 0.00 0.00 69 1020.7
20260509172046 61 223 2.6 7.0 0.00 0.00 0.00 70 1020.8
20260509171550 61 0 0.0 3.5 0.00 0.00 0.00 69 1020.9
20260509171047 60 307 0.9 4.3 0.00 0.00 0.00 68 1020.9
20260509170547 60 0 0.9 4.3 0.00 0.00 0.00 66 1020.9
20260509170051 60 352 0.9 4.3 0.00 0.00 0.00 70 1020.9
20260509165544 60 307 0.0 3.5 0.00 0.00 0.00 71 1020.9
20260509165046 59 342 0.9 4.3 0.00 0.00 0.00 71 1020.9
20260509164551 59 10 0.0 4.3 0.00 0.00 0.00 72 1021.0
20260509164045 58 310 1.7 3.5 0.00 0.00 0.00 73 1021.1
20260509163546 59 360 0.9 3.5 0.00 0.00 0.00 73 1021.2
20260509163051 58 298 0.0 3.5 0.00 0.00 0.00 73 1021.3
20260509162547 58 0 1.7 3.5 0.00 0.00 0.00 73 1021.4
20260509162045 58 331 0.0 1.7 0.00 0.00 0.00 77 1021.5
20260509161550 58 332 0.0 3.5 0.00 0.00 0.00 76 1021.4
20260509161045 57 0 0.0 3.5 0.00 0.00 0.00 76 1021.5
20260509160546 57 329 0.0 2.6 0.00 0.00 0.00 77 1021.6
20260509160055 56 0 0.0 2.6 0.00 0.00 0.00 78 1021.5
20260509155549 56 0 0.0 2.6 0.00 0.00 0.00 79 1021.6
20260509155045 56 0 0.0 3.5 0.00 0.00 0.00 78 1021.7
20260509154553 55 0 0.0 3.5 0.00 0.00 0.00 80 1021.7
20260509154046 55 350 0.9 3.5 0.00 0.00 0.00 81 1021.6
20260509153548 55 0 0.0 2.6 0.00 0.00 0.00 81 1021.6
20260509153110 55 0 0.0 3.5 0.00 0.00 0.00 82 1021.7
20260509152547 54 142 0.9 3.5 0.00 0.00 0.00 82 1021.8
20260509152047 54 0 0.0 1.7 0.00 0.00 0.00 83 1021.8